• în Republica Moldova
  • Lista ţărilor
  • Pe 7 zile
  • Temperatura apei
  • Hartă satelitară
  • Meteo pe hartă
  • Widget-uri
  • user-avatar
    Intrare

    Meteo pe oră la Mihalkino

    Astăzi, 24 Septembrie, Luni

    Timp Temperatura Precipitaţii Vânt Presiune Umiditate
    00:00 +7°C° 0 mm 2 m/s 735 mmHg 93%
    01:00 +6°C° 0 mm 2 m/s 735 mmHg 94%
    02:00 +6°C° 0 mm 2 m/s 735 mmHg 97%
    03:00 +5°C° 0 mm 2 m/s 735 mmHg 97%
    04:00 +5°C° 0 mm 2 m/s 735 mmHg 97%
    05:00 +5°C° 0 mm 2 m/s 734 mmHg 97%
    06:00 +6°C° 0.1 mm 2 m/s 734 mmHg 95%
    07:00 +7°C° 0.1 mm 2 m/s 734 mmHg 93%
    08:00 +8°C° 0 mm 2 m/s 734 mmHg 90%
    09:00 +8°C° 1.1 mm 3 m/s 733 mmHg 91%
    10:00 +8°C° 1.1 mm 3 m/s 733 mmHg 92%
    11:00 +8°C° 1.1 mm 3 m/s 732 mmHg 93%
    12:00 +7°C° 1.7 mm 4 m/s 731 mmHg 93%
    13:00 +7°C° 1.7 mm 4 m/s 730 mmHg 93%
    14:00 +7°C° 0 mm 3 m/s 730 mmHg 93%
    15:00 +6°C° 1.6 mm 4 m/s 729 mmHg 93%
    16:00 +6°C° 1.6 mm 4 m/s 728 mmHg 94%
    17:00 +5°C° 1.6 mm 4 m/s 727 mmHg 94%
    18:00 +5°C° 2 mm 4 m/s 727 mmHg 94%
    19:00 +5°C° 2 mm 4 m/s 726 mmHg 95%
    20:00 +5°C° 2 mm 5 m/s 726 mmHg 95%
    21:00 +5°C° 1.5 mm 5 m/s 726 mmHg 95%
    22:00 +5°C° 1.5 mm 5 m/s 726 mmHg 94%
    23:00 +4°C° 1.5 mm 6 m/s 726 mmHg 93%

    Mâine, 25 Septembrie, Marţi

    Timp Temperatura Precipitaţii Vânt Presiune Umiditate
    00:00 +5°C° 1 mm 6 m/s 727 mmHg 92%
    01:00 +5°C° 1 mm 6 m/s 727 mmHg 92%
    02:00 +5°C° 1 mm 6 m/s 728 mmHg 91%
    03:00 +5°C° 0.3 mm 6 m/s 728 mmHg 90%
    04:00 +4°C° 0.3 mm 6 m/s 729 mmHg 90%
    05:00 +4°C° 0.3 mm 6 m/s 730 mmHg 89%
    06:00 +4°C° 0.1 mm 6 m/s 731 mmHg 89%
    07:00 +4°C° 0.1 mm 6 m/s 732 mmHg 88%
    08:00 +4°C° 0.1 mm 6 m/s 732 mmHg 87%
    09:00 +4°C° 0 mm 6 m/s 733 mmHg 85%
    10:00 +5°C° 0 mm 6 m/s 734 mmHg 83%
    11:00 +5°C° 0 mm 6 m/s 735 mmHg 82%
    12:00 +5°C° 0 mm 6 m/s 736 mmHg 78%
    13:00 +7°C° 0 mm 6 m/s 736 mmHg 73%
    14:00 +7°C° 0 mm 6 m/s 737 mmHg 69%
    15:00 +7°C° 0 mm 5 m/s 738 mmHg 70%
    16:00 +7°C° 0 mm 4 m/s 738 mmHg 70%
    17:00 +6°C° 0 mm 4 m/s 739 mmHg 70%
    18:00 +5°C° 0 mm 4 m/s 740 mmHg 73%
    19:00 +5°C° 0 mm 4 m/s 740 mmHg 77%
    20:00 +4°C° 0 mm 4 m/s 741 mmHg 80%
    21:00 +3°C° 0 mm 4 m/s 742 mmHg 79%
    22:00 +3°C° 0 mm 4 m/s 742 mmHg 79%
    23:00 +3°C° 0 mm 4 m/s 743 mmHg 79%

    Poimâine, 26 Septembrie, Miercuri

    Timp Temperatura Precipitaţii Vânt Presiune Umiditate
    00:00 +1°C° 0 mm 4 m/s 744 mmHg 78%
    01:00 +1°C° 0 mm 4 m/s 744 mmHg 77%
    02:00 +1°C° 0 mm 3 m/s 745 mmHg 77%
    03:00 +1°C° 0 mm 3 m/s 745 mmHg 79%
    04:00 0°C° 0 mm 3 m/s 746 mmHg 81%
    05:00 0°C° 0 mm 3 m/s 746 mmHg 82%
    06:00 +1°C° 0 mm 3 m/s 747 mmHg 80%
    07:00 +2°C° 0 mm 3 m/s 747 mmHg 78%
    08:00 +3°C° 0 mm 3 m/s 747 mmHg 77%
    09:00 +5°C° 0 mm 3 m/s 747 mmHg 71%
    10:00 +7°C° 0 mm 4 m/s 747 mmHg 66%
    11:00 +8°C° 0 mm 4 m/s 747 mmHg 61%
    12:00 +10°C° 0 mm 4 m/s 747 mmHg 57%
    13:00 +11°C° 0 mm 4 m/s 746 mmHg 54%
    14:00 +10°C° 0 mm 5 m/s 746 mmHg 51%
    15:00 +10°C° 0 mm 4 m/s 745 mmHg 55%
    16:00 +8°C° 0 mm 4 m/s 744 mmHg 58%
    17:00 +7°C° 0 mm 4 m/s 744 mmHg 62%
    18:00 +7°C° 0.2 mm 5 m/s 743 mmHg 67%
    19:00 +7°C° 0.2 mm 5 m/s 742 mmHg 71%
    20:00 +5°C° 0.2 mm 6 m/s 741 mmHg 76%
    21:00 +5°C° 1.1 mm 7 m/s 740 mmHg 81%
    22:00 +5°C° 1.1 mm 7 m/s 739 mmHg 85%
    23:00 +4°C° 1.1 mm 7 m/s 737 mmHg 90%

    27 Septembrie, Joi

    Timp Temperatura Precipitaţii Vânt Presiune Umiditate
    00:00 +5°C° 1.2 mm 7 m/s 736 mmHg 90%
    01:00 +5°C° 1.2 mm 7 m/s 735 mmHg 90%
    02:00 +5°C° 1.2 mm 7 m/s 734 mmHg 91%
    03:00 +5°C° 0.9 mm 7 m/s 734 mmHg 91%
    04:00 +7°C° 0.9 mm 6 m/s 733 mmHg 92%
    05:00 +7°C° 0.9 mm 6 m/s 733 mmHg 92%
    06:00 +7°C° 0.2 mm 6 m/s 733 mmHg 90%
    07:00 +7°C° 0.2 mm 5 m/s 733 mmHg 87%
    08:00 +8°C° 0.2 mm 5 m/s 733 mmHg 84%
    09:00 +8°C° 0.1 mm 5 m/s 734 mmHg 77%
    10:00 +9°C° 0.1 mm 6 m/s 734 mmHg 70%
    11:00 +10°C° 0.1 mm 6 m/s 734 mmHg 62%
    12:00 +10°C° 0 mm 6 m/s 735 mmHg 59%
    13:00 +10°C° 0 mm 7 m/s 735 mmHg 56%
    14:00 +10°C° 0 mm 7 m/s 735 mmHg 53%
    15:00 +10°C° 0 mm 6 m/s 735 mmHg 57%
    16:00 +9°C° 0 mm 5 m/s 736 mmHg 61%
    17:00 +8°C° 0 mm 4 m/s 736 mmHg 65%
    18:00 +7°C° 0 mm 4 m/s 736 mmHg 68%
    19:00 +7°C° 0 mm 3 m/s 737 mmHg 70%
    20:00 +7°C° 0 mm 3 m/s 737 mmHg 73%
    21:00 +5°C° 0 mm 3 m/s 737 mmHg 74%
    22:00 +5°C° 0 mm 3 m/s 737 mmHg 76%
    23:00 +5°C° 0 mm 3 m/s 738 mmHg 77%

    28 Septembrie, Vineri

    Timp Temperatura Precipitaţii Vânt Presiune Umiditate
    00:00 +4°C° 0 mm 3 m/s 737 mmHg 80%
    01:00 +4°C° 0 mm 3 m/s 737 mmHg 82%
    02:00 +3°C° 0 mm 3 m/s 737 mmHg 85%
    03:00 +4°C° 0.4 mm 3 m/s 735 mmHg 86%
    04:00 +4°C° 0.4 mm 4 m/s 734 mmHg 86%
    05:00 +5°C° 0.4 mm 4 m/s 733 mmHg 86%
    06:00 +7°C° 1.2 mm 5 m/s 732 mmHg 87%
    07:00 +9°C° 1.2 mm 7 m/s 730 mmHg 88%
    08:00 +11°C° 1.2 mm 8 m/s 729 mmHg 89%
    09:00 +10°C° 1.4 mm 8 m/s 729 mmHg 89%
    10:00 +10°C° 1.4 mm 7 m/s 729 mmHg 89%
    11:00 +10°C° 1.4 mm 7 m/s 729 mmHg 89%
    12:00 +8°C° 0.3 mm 6 m/s 730 mmHg 88%
    13:00 +7°C° 0.3 mm 6 m/s 732 mmHg 87%
    14:00 +6°C° 0.3 mm 5 m/s 733 mmHg 86%
    15:00 +5°C° 0 mm 5 m/s 734 mmHg 85%
    16:00 +5°C° 0 mm 4 m/s 736 mmHg 85%
    17:00 +5°C° 0 mm 3 m/s 737 mmHg 85%
    18:00 +4°C° 0 mm 3 m/s 738 mmHg 87%
    19:00 +4°C° 0 mm 2 m/s 739 mmHg 89%
    20:00 +3°C° 0 mm 2 m/s 739 mmHg 91%
    21:00 +2°C° 0 mm 2 m/s 740 mmHg 91%
    22:00 +2°C° 0 mm 2 m/s 740 mmHg 92%
    23:00 +1°C° 0 mm 2 m/s 741 mmHg 92%

    29 Septembrie, Sâmbătă

    Timp Temperatura Precipitaţii Vânt Presiune Umiditate
    00:00 +1°C° 0 mm 2 m/s 741 mmHg 92%
    01:00 +1°C° 0 mm 2 m/s 741 mmHg 92%
    02:00 +1°C° 0 mm 2 m/s 741 mmHg 93%
    03:00 +2°C° 0 mm 2 m/s 741 mmHg 93%
    04:00 +1°C° 0 mm 3 m/s 741 mmHg 94%
    05:00 +2°C° 0 mm 3 m/s 741 mmHg 94%
    06:00 +2°C° 0 mm 3 m/s 742 mmHg 93%
    07:00 +3°C° 0 mm 3 m/s 742 mmHg 92%
    08:00 +4°C° 0 mm 3 m/s 742 mmHg 91%
    09:00 +4°C° 0.1 mm 3 m/s 743 mmHg 87%
    10:00 +5°C° 0.1 mm 3 m/s 743 mmHg 84%
    11:00 +5°C° 0.1 mm 3 m/s 744 mmHg 80%
    12:00 +7°C° 0.1 mm 3 m/s 744 mmHg 74%
    13:00 +7°C° 0.1 mm 3 m/s 744 mmHg 67%
    14:00 +8°C° 0.1 mm 3 m/s 744 mmHg 61%
    15:00 +7°C° 0 mm 2 m/s 744 mmHg 63%
    16:00 +6°C° 0 mm 2 m/s 745 mmHg 65%
    17:00 +6°C° 0 mm 1 m/s 745 mmHg 67%
    18:00 +5°C° 0 mm 1 m/s 746 mmHg 70%
    19:00 +4°C° 0 mm 1 m/s 746 mmHg 72%
    20:00 +3°C° 0 mm 1 m/s 746 mmHg 75%
    21:00 +2°C° 0 mm 1 m/s 747 mmHg 76%
    22:00 +2°C° 0 mm 1 m/s 747 mmHg 77%
    23:00 +2°C° 0 mm 1 m/s 747 mmHg 77%
    Arată mai mult